Overview Statistics Trail Chart Weather Telemetry Raw packets
 

This is the latest recevied weather packets stored in our database for station/object SV7GBF-2. If no packets are shown the sender has not sent any weather packets the latest 10 day(s).

<< 29 30 31 32 33 34 35 >>
Time Temp. Humidity Pressure Rain* Wind** Luminosity Snow
1788111244 27.78° C 46% 1016 hPa - - - -
1788109444 28.33° C 45% 1015 hPa - - - -
1788108843 27.78° C 45% 1015 hPa - - - -
1788108244 28.33° C 44% 1015 hPa - - - -
1788107643 28.33° C 43% 1015 hPa - - - -
1788107043 28.89° C 43% 1015 hPa - - - -
1788106443 28.33° C 42% 1015 hPa - - - -
1788105843 29.44° C 38% 1015 hPa - - - -
1788105243 29.44° C 36% 1015 hPa - - - -
1788104643 29.44° C 34% 1015 hPa - - - -
1788104043 30° C 31% 1015 hPa - - - -
1788103444 30.56° C - 1016.2 hPa - - - -
1788103443 30.56° C 29% 1016 hPa - - - -
1788102844 30.56° C 30% 1016 hPa - - - -
1788102243 30.56° C 31% 1015 hPa - - - -
1788101643 30.56° C 25% 1015 hPa - - - -
1788101045 31.67° C 20% 1015 hPa - - - -
1788100444 31.67° C 19% 1015 hPa - - - -
1788099844 32.22° C 18% 1015 hPa - - - -
1788099243 32.22° C 18% 1015 hPa - - - -
1788098644 32.22° C 18% 1015 hPa - - - -
1788098043 31.67° C 18% 1015 hPa - - - -
1788097445 31.67° C 15% 1016 hPa - - - -
1788096845 32.22° C 15% 1016 hPa - - - -
1788096243 31.67° C 15% 1016 hPa - - - -

* Rain since midnight (hover to see other rain measurements)
** Current wind speed in m/s (hover to see current wind gust speed)